Jefferson, NC

10:22 PM EST on December 05, 2019 (GMT -0500)
Ashe County

Weather History for KGEV - August, 2019

Change the Weather History Date:

Thursday, August 8, 2019

  Actual Average Record
Temperature  
Mean Temperature 70 °F -  
Max Temperature 77 °F 79 °F 88 °F (1987)
Min Temperature 64 °F 58 °F 46 °F (1989)
Cooling Degree Days 6    
Growing Degree Days 20 (Base 50)    
Moisture  
Dew Point 60 °F    
Average Humidity 69    
Maximum Humidity 89    
Minimum Humidity 50    
Precipitation  
Precipitation 0.00 in - - ()
Sea Level Pressure  
Sea Level Pressure 30.03 in    
Wind  
Wind Speed 7 mph ()    
Max Wind Speed 17 mph    
Max Gust Speed 24 mph    
Visibility 10.0 miles    
Events      
Averages and records for this station are not official NWS values.
T = Trace of Precipitation, MM = Missing Value Source: Averaged Metar Reports

Daily Weather History Graph

Daily Weather History Graph

Search for Another Location

Airport or City:

Astronomy

Aug. 08, 2019 Rise Set
Actual Time 6:37 AM EDT 8:24 PM EDT
Civil Twilight 6:09 AM EDT 8:52 PM EDT
Nautical Twilight 5:35 AM EDT 9:26 PM EDT
Astronomical Twilight 4:59 AM EDT 10:01 PM EDT
Moon 2:59 PM EDT (8/8) 12:57 AM EDT (8/8)
Length of Visible Light 14h 42m
Length of Day
13h 46m
First Quarter, 60% of the Moon is Illuminated
Aug 8
First Quarter
Aug 15
Full
Aug 23
Last Quarter
Aug 30
New
Sep 5
First Quarter

Hourly Weather History & Observations

Time (EDT) Temp. Dew Point Humidity Pressure Visibility Wind Dir Wind Speed Gust Speed Precip Events Conditions
12:15 AM 69.3 °F 62.8 °F 80% 30.02 in 10.0 mi West 6.9 mph - N/A   Mostly Cloudy
12:35 AM 68.5 °F 62.6 °F 81% 30.02 in 10.0 mi Calm Calm - N/A   Mostly Cloudy
12:55 AM 68.2 °F 62.1 °F 81% 30.02 in 10.0 mi West 8.1 mph - N/A   Scattered Clouds
1:15 AM 66.2 °F 61.9 °F 86% 30.01 in 10.0 mi Calm Calm - N/A   Clear
1:35 AM 67.5 °F 61.7 °F 82% 30.01 in 10.0 mi WNW 4.6 mph - N/A   Clear
1:55 AM 67.3 °F 61.7 °F 82% 30.00 in 10.0 mi West 9.2 mph - N/A   Clear
2:15 AM 66.7 °F 61.7 °F 84% 29.99 in 10.0 mi WNW 6.9 mph - N/A   Clear
2:35 AM 66.7 °F 61.7 °F 84% 29.99 in 10.0 mi West 5.8 mph - N/A   Clear
2:55 AM 66.7 °F 61.5 °F 83% 29.99 in 10.0 mi West 6.9 mph - N/A   Clear
3:15 AM 66.2 °F 61.7 °F 85% 29.99 in 10.0 mi West 10.4 mph - N/A   Clear
3:35 AM 66.6 °F 61.2 °F 83% 29.98 in 10.0 mi WNW 9.2 mph - N/A   Clear
3:55 AM 66.6 °F 60.8 °F 82% 29.99 in 10.0 mi NW 6.9 mph - N/A   Clear
4:15 AM 66.4 °F 60.8 °F 82% 29.98 in 10.0 mi WNW 5.8 mph - N/A   Clear
4:35 AM 64.0 °F 60.6 °F 89% 29.98 in 10.0 mi West 3.5 mph - N/A   Clear
4:55 AM 64.8 °F 61.0 °F 88% 29.98 in 10.0 mi West 5.8 mph - N/A   Scattered Clouds
5:55 AM 64.9 °F 61.7 °F 89% 29.99 in 10.0 mi West 9.2 mph - N/A   Clear
6:15 AM 65.3 °F 61.5 °F 88% 30.00 in 10.0 mi West 6.9 mph - N/A   Scattered Clouds
6:35 AM 65.3 °F 61.2 °F 86% 30.01 in 10.0 mi West 6.9 mph - N/A   Scattered Clouds
6:55 AM 64.9 °F 61.5 °F 89% 30.02 in 10.0 mi West 6.9 mph - N/A   Clear
7:35 AM 66.2 °F 60.8 °F 83% 30.02 in 10.0 mi WNW 6.9 mph - N/A   Scattered Clouds
7:55 AM 66.7 °F 61.0 °F 82% 30.02 in 10.0 mi West 10.4 mph - N/A   Clear
8:15 AM 67.1 °F 61.0 °F 81% 30.02 in 10.0 mi West 9.2 mph - N/A   Clear
8:35 AM 68.0 °F 61.0 °F 78% 30.02 in 10.0 mi West 8.1 mph - N/A   Clear
8:55 AM 68.5 °F 61.0 °F 77% 30.02 in 10.0 mi West 10.4 mph - N/A   Clear
9:35 AM 69.1 °F 61.0 °F 75% 30.03 in 10.0 mi WNW 11.5 mph 17.3 mph N/A   Clear
9:55 AM 70.0 °F 61.0 °F 73% 30.02 in 10.0 mi WNW 6.9 mph 17.3 mph N/A   Clear
10:15 AM 71.6 °F 61.0 °F 69% 30.03 in 10.0 mi West 10.4 mph 18.4 mph N/A   Clear
10:35 AM 71.6 °F 59.5 °F 66% 30.04 in 10.0 mi NW 6.9 mph 21.9 mph N/A   Scattered Clouds
10:55 AM 72.0 °F 59.5 °F 65% 30.04 in 10.0 mi NW 3.5 mph 18.4 mph N/A   Scattered Clouds
11:15 AM 72.1 °F 59.4 °F 64% 30.04 in 10.0 mi WNW 4.6 mph - N/A   Scattered Clouds
11:35 AM 72.7 °F 60.3 °F 65% 30.04 in 10.0 mi West 11.5 mph - N/A   Mostly Cloudy
11:55 AM 73.2 °F 60.4 °F 64% 30.04 in 10.0 mi West 9.2 mph - N/A   Mostly Cloudy
12:15 PM 73.2 °F 60.3 °F 64% 30.05 in 10.0 mi WNW 5.8 mph - N/A   Mostly Cloudy
12:35 PM 74.5 °F 58.6 °F 58% 30.04 in 10.0 mi WNW 12.7 mph 17.3 mph N/A   Scattered Clouds
12:55 PM 74.3 °F 58.8 °F 58% 30.04 in 10.0 mi WNW 6.9 mph - N/A   Scattered Clouds
1:15 PM 75.9 °F 58.8 °F 55% 30.04 in 10.0 mi WNW 9.2 mph - N/A   Scattered Clouds
1:35 PM 76.3 °F 57.7 °F 53% 30.04 in 10.0 mi WNW 11.5 mph - N/A   Scattered Clouds
1:55 PM 77.0 °F 57.9 °F 52% 30.05 in 10.0 mi West 12.7 mph 18.4 mph N/A   Scattered Clouds
2:15 PM 76.8 °F 57.4 °F 51% 30.04 in 10.0 mi West 17.3 mph 21.9 mph N/A   Scattered Clouds
2:35 PM 76.5 °F 57.9 °F 53% 30.04 in 10.0 mi West 13.8 mph 20.7 mph N/A   Scattered Clouds
2:55 PM 77.2 °F 58.3 °F 52% 30.04 in 10.0 mi West 15.0 mph 18.4 mph N/A   Scattered Clouds
3:15 PM 77.9 °F 58.1 °F 50% 30.03 in 10.0 mi West 13.8 mph 20.7 mph N/A   Scattered Clouds
3:35 PM 77.2 °F 57.9 °F 51% 30.04 in 10.0 mi West 13.8 mph 21.9 mph N/A   Scattered Clouds
3:55 PM 77.4 °F 58.1 °F 51% 30.03 in 10.0 mi West 12.7 mph 16.1 mph N/A   Scattered Clouds
4:15 PM 77.7 °F 57.9 °F 50% 30.02 in 10.0 mi West 11.5 mph 19.6 mph N/A   Scattered Clouds
4:35 PM 77.7 °F 59.2 °F 53% 30.02 in 10.0 mi WNW 8.1 mph 11.5 mph N/A   Scattered Clouds
4:55 PM 77.4 °F 59.5 °F 54% 30.02 in 10.0 mi WNW 11.5 mph 20.7 mph N/A   Scattered Clouds
5:15 PM 76.6 °F 58.8 °F 54% 30.02 in 10.0 mi WNW 16.1 mph 21.9 mph N/A   Scattered Clouds
5:35 PM 76.8 °F 58.5 °F 53% 30.02 in 10.0 mi WNW 17.3 mph 21.9 mph N/A   Clear
5:55 PM 76.3 °F 59.0 °F 55% 30.02 in 10.0 mi WNW 10.4 mph 16.1 mph N/A   Clear
6:15 PM 76.5 °F 58.5 °F 54% 30.02 in 10.0 mi West 13.8 mph 24.2 mph N/A   Clear
6:35 PM 75.7 °F 58.6 °F 55% 30.02 in 10.0 mi WNW 10.4 mph 19.6 mph N/A   Clear
6:55 PM 75.2 °F 58.8 °F 57% 30.02 in 10.0 mi WNW 6.9 mph 16.1 mph N/A   Clear
7:15 PM 74.3 °F 59.0 °F 59% 30.02 in 10.0 mi WNW 4.6 mph - N/A   Clear
7:35 PM 74.5 °F 59.5 °F 60% 30.03 in 10.0 mi WNW 12.7 mph 20.7 mph N/A   Clear
7:55 PM 73.4 °F 59.5 °F 62% 30.03 in 10.0 mi WNW 8.1 mph 17.3 mph N/A   Clear
8:15 PM 72.7 °F 59.5 °F 63% 30.04 in 10.0 mi West 4.6 mph - N/A   Clear
8:35 PM 72.5 °F 59.9 °F 64% 30.04 in 10.0 mi WNW 9.2 mph - N/A   Clear
8:55 PM 72.0 °F 59.9 °F 66% 30.04 in 10.0 mi West 6.9 mph 16.1 mph N/A   Clear
9:15 PM 70.7 °F 60.4 °F 70% 30.05 in 10.0 mi West 9.2 mph - N/A   Clear
9:35 PM 70.2 °F 60.6 °F 72% 30.06 in 10.0 mi West 5.8 mph - N/A   Clear
9:55 PM 70.0 °F 60.8 °F 73% 30.06 in 10.0 mi West 4.6 mph - N/A   Clear
10:15 PM 69.4 °F 60.8 °F 74% 30.07 in 10.0 mi Calm Calm - N/A   Clear
10:35 PM 69.1 °F 61.0 °F 75% 30.07 in 10.0 mi WSW 5.8 mph - N/A   Clear
10:55 PM 69.3 °F 61.2 °F 75% 30.07 in 10.0 mi West 8.1 mph - N/A   Clear
11:15 PM 69.1 °F 61.5 °F 77% 30.07 in 10.0 mi West 9.2 mph - N/A   Clear
11:35 PM 68.7 °F 61.7 °F 78% 30.07 in 10.0 mi West 10.4 mph - N/A   Clear
11:55 PM 68.5 °F 61.7 °F 79% 30.07 in 10.0 mi West 9.2 mph - N/A   Clear